KA5ZCI Weather Reports


time (UTC)temp
F
wind
direction
speed
knots
gust
knots
rain 1hr
in
rain 24hr
in
rain mn
in
humidity
%
barometer
mb
20260510202004 83 68 0.9 7.0 0.00 0.00 0.00 70 1015.7
20260510201503 83 76 4.3 8.7 0.00 0.00 0.00 67 1015.6
20260510200504 83 69 5.2 10.4 0.00 0.00 0.00 67 1015.6
20260510200004 83 75 5.2 10.4 0.00 0.00 0.00 66 1015.6
20260510195503 83 87 5.2 10.4 0.00 0.00 0.00 65 1015.6
20260510195003 83 82 3.5 10.4 0.00 0.00 0.00 66 1015.5
20260510194504 83 88 3.5 10.4 0.00 0.00 0.00 66 1015.4
20260510194004 83 98 5.2 12.2 0.00 0.00 0.00 66 1015.3
20260510193504 83 76 6.1 11.3 0.00 0.00 0.00 64 1015.4
20260510193004 82 90 4.3 13.0 0.00 0.00 0.00 66 1015.4
20260510192504 82 95 6.1 8.7 0.00 0.00 0.00 66 1015.6
20260510191504 82 69 4.3 10.4 0.00 0.00 0.00 70 1015.8
20260510191004 81 80 5.2 8.7 0.00 0.00 0.00 68 1015.9
20260510190504 81 76 6.1 10.4 0.00 0.00 0.00 67 1015.9
20260510190004 81 82 5.2 11.3 0.00 0.00 0.00 69 1015.9
20260510185504 81 58 6.1 10.4 0.00 0.00 0.00 69 1016.0
20260510185004 82 63 3.5 8.7 0.00 0.00 0.00 70 1016.0
20260510184504 81 60 6.1 11.3 0.00 0.00 0.00 68 1016.0
20260510183504 81 78 4.3 8.7 0.00 0.00 0.00 71 1016.1
20260510183004 81 63 3.5 7.8 0.00 0.00 0.00 74 1016.1
20260510182504 81 94 5.2 8.7 0.00 0.00 0.00 72 1016.1
20260510181004 80 100 4.3 8.7 0.00 0.00 0.00 74 1016.5
20260510180503 80 93 4.3 8.7 0.00 0.00 0.00 73 1016.6
20260510180004 80 79 4.3 10.4 0.00 0.00 0.00 75 1016.6
20260510175504 80 102 4.3 10.4 0.00 0.00 0.00 77 1016.7
20260510175004 80 84 3.5 10.4 0.00 0.00 0.00 76 1016.7
20260510174505 80 78 6.1 8.7 0.00 0.00 0.00 71 1016.7
20260510174003 80 38 2.6 7.8 0.00 0.00 0.00 74 1016.7
20260510171503 68 123 1.7 7.8 0.00 0.00 0.00 95 1013.7
20260510171004 68 123 1.7 7.8 0.00 0.00 0.00 95 1013.7
20260510170504 68 123 1.7 7.8 0.00 0.00 0.00 95 1013.7
20260510165504 68 123 1.7 7.8 0.00 0.00 0.00 95 1013.7
20260510165004 68 123 1.7 7.8 0.00 0.00 0.00 95 1013.7
20260510164504 68 123 1.7 7.8 0.00 0.00 0.00 95 1013.7
20260510164004 68 123 1.7 7.8 0.00 0.01 0.00 95 1013.7
20260510163504 68 123 1.7 7.8 0.00 0.02 0.00 95 1013.7
20260510163003 68 123 1.7 7.8 0.00 0.03 0.00 95 1013.7
20260510162503 68 123 1.7 7.8 0.00 0.03 0.00 95 1013.7
20260510161503 68 123 1.7 7.8 0.00 0.07 0.00 95 1013.7
20260510161004 68 123 1.7 7.8 0.00 0.07 0.00 95 1013.7
20260510160503 68 123 1.7 7.8 0.00 0.07 0.00 95 1013.7
20260510160003 68 123 1.7 7.8 0.00 0.07 0.00 95 1013.7
20260510155504 68 123 1.7 7.8 0.00 0.07 0.00 95 1013.7
20260510155003 68 123 1.7 7.8 0.00 0.07 0.00 95 1013.7
20260510154504 68 123 1.7 7.8 0.00 0.07 0.00 95 1013.7
20260510153504 68 123 1.7 7.8 0.00 0.07 0.00 95 1013.7
20260510153004 68 123 1.7 7.8 0.00 0.07 0.00 95 1013.7
20260510152503 68 123 1.7 7.8 0.00 0.07 0.00 95 1013.7
20260510152004 68 123 1.7 7.8 0.00 0.07 0.00 95 1013.7
20260510151503 68 123 1.7 7.8 0.00 0.07 0.00 95 1013.7
20260510151004 68 123 1.7 7.8 0.00 0.07 0.00 95 1013.7
20260510150504 68 123 1.7 7.8 0.00 0.07 0.00 95 1013.7
20260510143504 68 123 1.7 7.8 0.00 0.07 0.00 95 1013.7
20260510143004 68 123 1.7 7.8 0.00 0.07 0.00 95 1013.7
20260510142504 68 123 1.7 7.8 0.00 0.07 0.00 95 1013.7
20260510141503 68 123 1.7 7.8 0.00 0.07 0.00 95 1013.7
20260510141004 68 123 1.7 7.8 0.00 0.07 0.00 95 1013.7
20260510140503 68 123 1.7 7.8 0.00 0.07 0.00 95 1013.7
20260510140004 68 123 1.7 7.8 0.00 0.07 0.00 95 1013.7
20260510135504 68 123 1.7 7.8 0.00 0.07 0.00 95 1013.7
20260510135004 68 123 1.7 7.8 0.00 0.07 0.00 95 1013.7
20260510134503 68 123 1.7 7.8 0.00 0.07 0.00 95 1013.7
20260510134004 68 123 1.7 7.8 0.00 0.07 0.00 95 1013.7
20260510133004 68 123 1.7 7.8 0.00 0.07 0.00 95 1013.7
20260510132503 68 123 1.7 7.8 0.00 0.07 0.00 95 1013.7
20260510132004 68 123 1.7 7.8 0.00 0.07 0.00 95 1013.7
20260510131004 68 123 1.7 7.8 0.00 0.07 0.00 95 1013.7
20260510130504 68 123 1.7 7.8 0.00 0.07 0.00 95 1013.7
20260510130003 68 123 1.7 7.8 0.00 0.07 0.00 95 1013.7
20260510125505 68 123 1.7 7.8 0.00 0.07 0.00 95 1013.7
20260510125004 68 123 1.7 7.8 0.00 0.07 0.00 95 1013.7
20260510124503 68 123 1.7 7.8 0.00 0.07 0.00 95 1013.7
20260510124003 68 123 1.7 7.8 0.00 0.07 0.00 95 1013.7
20260510123504 68 123 1.7 7.8 0.00 0.07 0.00 95 1013.7
20260510123003 68 123 1.7 7.8 0.00 0.07 0.00 95 1013.7
20260510122504 68 123 1.7 7.8 0.00 0.07 0.00 95 1013.7
20260510122003 68 123 1.7 7.8 0.00 0.07 0.00 95 1013.7
20260510121504 68 123 1.7 7.8 0.00 0.07 0.00 95 1013.7
20260510121003 68 123 1.7 7.8 0.00 0.07 0.00 95 1013.7
20260510120504 68 123 1.7 7.8 0.00 0.07 0.00 95 1013.7
20260510120004 68 123 1.7 7.8 0.00 0.07 0.00 95 1013.7
20260510115504 68 123 1.7 7.8 0.00 0.07 0.00 95 1013.7
20260510115003 68 123 1.7 7.8 0.00 0.07 0.00 95 1013.7
20260510114004 68 123 1.7 7.8 0.00 0.07 0.00 95 1013.7
20260510113504 68 123 1.7 7.8 0.00 0.07 0.00 95 1013.7
20260510113004 68 123 1.7 7.8 0.00 0.07 0.00 95 1013.7
20260510112503 68 123 1.7 7.8 0.00 0.07 0.00 95 1013.7
20260510112004 68 123 1.7 7.8 0.00 0.07 0.00 95 1013.7
20260510111503 68 123 1.7 7.8 0.00 0.07 0.00 95 1013.7
20260510111003 68 123 1.7 7.8 0.00 0.07 0.00 95 1013.7
20260510110503 68 123 1.7 7.8 0.00 0.07 0.00 95 1013.7
20260510110004 68 123 1.7 7.8 0.00 0.07 0.00 95 1013.7
20260510105504 68 123 1.7 7.8 0.00 0.07 0.00 95 1013.7
20260510105004 68 123 1.7 7.8 0.00 0.07 0.00 95 1013.7
20260510104504 68 123 1.7 7.8 0.00 0.07 0.00 95 1013.7
20260510104004 68 123 1.7 7.8 0.00 0.07 0.00 95 1013.7
20260510103503 68 123 1.7 7.8 0.00 0.07 0.00 95 1013.7
20260510103004 68 123 1.7 7.8 0.00 0.07 0.00 95 1013.7
20260510102503 68 123 1.7 7.8 0.00 0.07 0.00 95 1013.7
20260510101504 68 123 1.7 7.8 0.00 0.07 0.00 95 1013.7
20260510101003 68 123 1.7 7.8 0.00 0.07 0.00 95 1013.7
20260510100503 68 123 1.7 7.8 0.00 0.07 0.00 95 1013.7
20260510100004 68 123 1.7 7.8 0.00 0.07 0.00 95 1013.7
20260510095504 68 123 1.7 7.8 0.00 0.07 0.00 95 1013.7
20260510095004 68 123 1.7 7.8 0.00 0.07 0.00 95 1013.7
20260510094504 68 123 1.7 7.8 0.00 0.07 0.00 95 1013.7
20260510094003 68 123 1.7 7.8 0.00 0.07 0.00 95 1013.7
20260510093004 68 123 1.7 7.8 0.00 0.07 0.00 95 1013.7
20260510092504 68 123 1.7 7.8 0.00 0.07 0.00 95 1013.7
20260510092003 68 123 1.7 7.8 0.00 0.07 0.00 95 1013.7
20260510091504 68 123 1.7 7.8 0.00 0.07 0.00 95 1013.7
20260510091004 68 123 1.7 7.8 0.00 0.07 0.00 95 1013.7
20260510090503 68 123 1.7 7.8 0.00 0.07 0.00 95 1013.7
20260510085503 68 123 1.7 7.8 0.00 0.07 0.00 95 1013.7
20260510085004 68 123 1.7 7.8 0.00 0.07 0.00 95 1013.7
20260510084004 68 123 1.7 7.8 0.00 0.07 0.00 95 1013.7
20260510083504 68 123 1.7 7.8 0.00 0.07 0.00 95 1013.7
20260510083003 68 123 1.7 7.8 0.00 0.07 0.00 95 1013.7
20260510082503 68 123 1.7 7.8 0.00 0.07 0.00 95 1013.7
20260510082003 68 123 1.7 7.8 0.00 0.07 0.00 95 1013.7
20260510081504 68 123 1.7 7.8 0.00 0.07 0.00 95 1013.7
20260510080503 68 123 1.7 7.8 0.00 0.07 0.00 95 1013.7
20260510080003 68 123 1.7 7.8 0.00 0.07 0.00 95 1013.7
20260510075504 68 123 1.7 7.8 0.00 0.07 0.00 95 1013.7
20260510075003 68 123 1.7 7.8 0.00 0.07 0.00 95 1013.7
20260510074504 68 123 1.7 7.8 0.00 0.07 0.00 95 1013.7
20260510074004 68 123 1.7 7.8 0.00 0.07 0.00 95 1013.7
20260510073504 68 123 1.7 7.8 0.00 0.07 0.00 95 1013.7
20260510073004 68 123 1.7 7.8 0.00 0.07 0.00 95 1013.7
20260510072504 68 123 1.7 7.8 0.00 0.07 0.00 95 1013.7
20260510072004 68 123 1.7 7.8 0.00 0.07 0.00 95 1013.7
20260510071004 68 123 1.7 7.8 0.00 0.07 0.00 95 1013.7
20260510070503 68 123 1.7 7.8 0.00 0.07 0.00 95 1013.7
20260510070004 68 123 1.7 7.8 0.00 0.07 0.00 95 1013.7
20260510065004 68 123 1.7 7.8 0.00 0.07 0.00 95 1013.7
20260510064504 68 123 1.7 7.8 0.00 0.07 0.00 95 1013.7
20260510064004 68 123 1.7 7.8 0.00 0.07 0.00 95 1013.7
20260510063504 68 123 1.7 7.8 0.00 0.07 0.00 95 1013.7
20260510063004 68 123 1.7 7.8 0.00 0.07 0.00 95 1013.7
20260510062004 68 123 1.7 7.8 0.00 0.07 0.00 95 1013.7
20260510061504 68 123 1.7 7.8 0.00 0.07 0.00 95 1013.7
20260510061004 68 123 1.7 7.8 0.00 0.07 0.00 95 1013.7
20260510060503 68 123 1.7 7.8 0.00 0.07 0.00 95 1013.7
20260510060003 68 123 1.7 7.8 0.00 0.07 0.00 95 1013.7
20260510055504 68 123 1.7 7.8 0.00 0.07 0.00 95 1013.7
20260510055004 68 123 1.7 7.8 0.00 0.07 0.00 95 1013.7
20260510054504 68 123 1.7 7.8 0.00 0.07 0.00 95 1013.7
20260510054004 68 123 1.7 7.8 0.00 0.07 0.00 95 1013.7
20260510053504 68 123 1.7 7.8 0.00 0.07 0.00 95 1013.7
20260510053004 68 123 1.7 7.8 0.00 0.07 0.00 95 1013.7
20260510052004 68 123 1.7 7.8 0.00 0.07 0.00 95 1013.7
20260510051504 68 123 1.7 7.8 0.00 0.07 0.00 95 1013.7
20260510050504 68 123 1.7 7.8 0.00 0.07 0.00 95 1013.7
20260510050005 68 123 1.7 7.8 0.00 0.07 0.00 95 1013.7
20260510045003 68 123 1.7 7.8 0.00 0.07 0.07 95 1013.7
20260510044504 68 123 1.7 7.8 0.00 0.07 0.07 95 1013.7
20260510044004 68 123 1.7 7.8 0.00 0.07 0.07 95 1013.7
20260510043503 68 123 1.7 7.8 0.00 0.07 0.07 95 1013.7
20260510043003 68 123 1.7 7.8 0.00 0.07 0.07 95 1013.7
20260510042503 68 123 1.7 7.8 0.00 0.07 0.07 95 1013.7
20260510042004 68 123 1.7 7.8 0.00 0.07 0.07 95 1013.7
20260510041004 68 123 1.7 7.8 0.00 0.07 0.07 95 1013.7
20260510040503 68 123 1.7 7.8 0.00 0.07 0.07 95 1013.7
20260510040003 68 123 1.7 7.8 0.00 0.07 0.07 95 1013.7
20260510035004 68 123 1.7 7.8 0.00 0.07 0.07 95 1013.7
20260510034504 68 123 1.7 7.8 0.00 0.07 0.07 95 1013.7
20260510034005 68 123 1.7 7.8 0.00 0.07 0.07 95 1013.7
20260510033504 68 123 1.7 7.8 0.00 0.07 0.07 95 1013.7
20260510033004 68 123 1.7 7.8 0.00 0.07 0.07 95 1013.7
20260510032503 68 123 1.7 7.8 0.00 0.07 0.07 95 1013.7
20260510032004 68 123 1.7 7.8 0.00 0.07 0.07 95 1013.7
20260510031504 68 123 1.7 7.8 0.00 0.07 0.07 95 1013.7
20260510031004 68 123 1.7 7.8 0.00 0.07 0.07 95 1013.7
20260510030503 68 123 1.7 7.8 0.00 0.07 0.07 95 1013.7
20260510025504 68 123 1.7 7.8 0.00 0.07 0.07 95 1013.7
20260510025004 68 123 1.7 7.8 0.00 0.07 0.07 95 1013.7
20260510024504 68 123 1.7 7.8 0.00 0.07 0.07 95 1013.7
20260510024004 68 123 1.7 7.8 0.00 0.07 0.07 95 1013.7
20260510023504 68 123 1.7 7.8 0.00 0.07 0.07 95 1013.7
20260510023004 68 123 1.7 7.8 0.00 0.07 0.07 95 1013.7
20260510022504 68 123 1.7 7.8 0.00 0.07 0.07 95 1013.7
20260510022003 68 123 1.7 7.8 0.00 0.07 0.07 95 1013.7
20260510021504 68 123 1.7 7.8 0.00 0.07 0.07 95 1013.7
20260510020503 68 123 1.7 7.8 0.00 0.07 0.07 95 1013.7
20260510015504 68 123 1.7 7.8 0.00 0.07 0.07 95 1013.7
20260510015004 68 123 1.7 7.8 0.00 0.07 0.07 95 1013.7
20260510014504 68 123 1.7 7.8 0.00 0.07 0.07 95 1013.7
20260510014004 68 123 1.7 7.8 0.00 0.07 0.07 95 1013.7
20260510013004 68 123 1.7 7.8 0.00 0.07 0.07 95 1013.7
20260510012503 68 123 1.7 7.8 0.00 0.07 0.07 95 1013.7
20260510012004 68 123 1.7 7.8 0.00 0.07 0.07 95 1013.7
20260510011503 68 123 1.7 7.8 0.00 0.08 0.07 95 1013.7
20260510011004 68 123 1.7 7.8 0.00 0.08 0.07 95 1013.7
20260510010504 68 123 1.7 7.8 0.00 0.08 0.07 95 1013.7
20260510010004 68 123 1.7 7.8 0.00 0.08 0.07 95 1013.7
20260510005503 68 123 1.7 7.8 0.00 0.08 0.07 95 1013.7
20260510004503 68 123 1.7 7.8 0.00 0.08 0.07 95 1013.7
20260510004004 68 123 1.7 7.8 0.00 0.08 0.07 95 1013.7
20260510003504 68 123 1.7 7.8 0.00 0.08 0.07 95 1013.7
20260510003004 68 123 1.7 7.8 0.00 0.08 0.07 95 1013.7
20260510002504 68 123 1.7 7.8 0.00 0.08 0.07 95 1013.7
20260510002003 68 123 1.7 7.8 0.00 0.08 0.07 95 1013.7
20260510001503 68 123 1.7 7.8 0.00 0.08 0.07 95 1013.7
20260510001003 68 123 1.7 7.8 0.00 0.08 0.07 95 1013.7
20260510000504 68 123 1.7 7.8 0.00 0.08 0.07 95 1013.7
20260510000004 68 123 1.7 7.8 0.00 0.08 0.07 95 1013.7
20260509235503 68 123 1.7 7.8 0.00 0.08 0.07 95 1013.7
20260509235004 68 123 1.7 7.8 0.00 0.08 0.07 95 1013.7
20260509234504 68 123 1.7 7.8 0.00 0.08 0.07 95 1013.7
20260509234003 68 123 1.7 7.8 0.00 0.08 0.07 95 1013.7
20260509233504 68 123 1.7 7.8 0.00 0.08 0.07 95 1013.7
20260509233004 68 123 1.7 7.8 0.00 0.08 0.07 95 1013.7
20260509232503 68 123 1.7 7.8 0.00 0.08 0.07 95 1013.7
20260509231503 68 123 1.7 7.8 0.00 0.08 0.07 95 1013.7
20260509231004 68 123 1.7 7.8 0.00 0.08 0.07 95 1013.7
20260509230504 68 123 1.7 7.8 0.00 0.08 0.07 95 1013.7
20260509230004 68 123 1.7 7.8 0.00 0.08 0.07 95 1013.7
20260509225504 68 123 1.7 7.8 0.00 0.08 0.07 95 1013.7
20260509224504 68 123 1.7 7.8 0.00 0.08 0.07 95 1013.7
20260509224004 68 123 1.7 7.8 0.00 0.08 0.07 95 1013.7
20260509223504 68 123 1.7 7.8 0.00 0.08 0.07 95 1013.7
20260509223004 68 123 1.7 7.8 0.00 0.08 0.07 95 1013.7
20260509222504 68 123 1.7 7.8 0.00 0.08 0.07 95 1013.7
20260509222004 68 123 1.7 7.8 0.00 0.08 0.07 95 1013.7
20260509221504 68 123 1.7 7.8 0.00 0.08 0.07 95 1013.7
20260509221004 68 123 1.7 7.8 0.00 0.08 0.07 95 1013.7
20260509220504 68 123 1.7 7.8 0.00 0.08 0.07 95 1013.7
20260509220004 68 123 1.7 7.8 0.00 0.08 0.07 95 1013.7
20260509215504 68 123 1.7 7.8 0.00 0.08 0.07 95 1013.7
20260509215004 68 123 1.7 7.8 0.00 0.08 0.07 95 1013.7
20260509214504 68 123 1.7 7.8 0.00 0.08 0.07 95 1013.7
20260509214004 68 123 1.7 7.8 0.00 0.08 0.07 95 1013.7
20260509213504 68 123 1.7 7.8 0.00 0.08 0.07 95 1013.7
20260509212503 68 123 1.7 7.8 0.00 0.08 0.07 95 1013.7
20260509212004 68 123 1.7 7.8 0.00 0.08 0.07 95 1013.7
20260509211504 68 123 1.7 7.8 0.00 0.08 0.07 95 1013.7
20260509210504 68 123 1.7 7.8 0.00 0.08 0.07 95 1013.7
20260509210004 68 123 1.7 7.8 0.00 0.08 0.07 95 1013.7
20260509205503 68 123 1.7 7.8 0.00 0.08 0.07 95 1013.7
20260509205003 68 123 1.7 7.8 0.00 0.08 0.07 95 1013.7
20260509204504 68 123 1.7 7.8 0.00 0.08 0.07 95 1013.7
20260509202504 68 123 1.7 7.8 0.00 0.08 0.07 95 1013.7